Time,TemperatureF,DewpointF,PressureIn,WindDirection,WindDirectionDegrees,WindSpeedMPH,WindSpeedGustMPH,Humidity,HourlyPrecipIn,Conditions,Clouds,dailyrainin,SoftwareType,DateUTC
2013-07-13 00:01:00,76.0,66.0,-100.00,SW,235,9.0,17.0,69,0.00,,,0.00,,2013-07-13 05:01:00,
2013-07-13 00:22:00,74.0,70.0,-100.00,SSW,210,9.0,13.0,84,0.00,,,0.00,,2013-07-13 05:22:00,
2013-07-13 00:42:00,74.0,70.0,-100.00,West,260,6.0,9.0,89,0.00,,,0.00,,2013-07-13 05:42:00,
2013-07-13 00:52:00,73.0,70.0,-100.00,West,260,7.0,9.0,91,0.00,,,0.00,,2013-07-13 05:52:00,
2013-07-13 01:11:00,72.0,70.0,-100.00,North,350,2.0,6.0,93,0.00,,,0.00,,2013-07-13 06:11:00,
2013-07-13 01:22:00,72.0,70.0,-100.00,NE,50,1.0,4.0,93,0.00,,,0.00,,2013-07-13 06:22:00,
2013-07-13 01:52:00,72.0,72.0,-100.00,SE,140,4.0,6.0,94,0.00,,,0.00,,2013-07-13 06:52:00,
2013-07-13 02:22:00,72.0,72.0,-100.00,SE,145,2.0,4.0,94,0.00,,,0.00,,2013-07-13 07:22:00,
2013-07-13 02:44:00,72.0,70.0,-100.00,South,170,5.0,7.0,94,0.00,,,0.00,,2013-07-13 07:44:00,
2013-07-13 02:53:00,71.0,70.0,-100.00,South,175,4.0,7.0,94,0.00,,,0.00,,2013-07-13 07:53:00,
2013-07-13 03:22:00,71.0,70.0,-100.00,SSW,210,4.0,7.0,94,0.00,,,0.00,,2013-07-13 08:22:00,
2013-07-13 03:33:00,71.0,70.0,-100.00,SSW,205,3.0,6.0,94,0.00,,,0.00,,2013-07-13 08:33:00,
2013-07-13 03:52:00,71.0,70.0,-100.00,South,185,2.0,5.0,94,0.00,,,0.00,,2013-07-13 08:52:00,
2013-07-13 04:22:00,72.0,70.0,-100.00,South,190,2.0,3.0,94,0.00,,,0.00,,2013-07-13 09:22:00,
2013-07-13 05:22:00,72.0,70.0,-100.00,SE,130,1.0,3.0,94,0.00,,,0.00,,2013-07-13 10:22:00,
2013-07-13 06:02:00,72.0,70.0,-100.00,SE,140,1.0,1.0,94,0.00,,,0.00,,2013-07-13 11:02:00,
2013-07-13 06:11:00,71.0,70.0,-100.00,NNE,25,1.0,1.0,94,0.00,,,0.00,,2013-07-13 11:11:00,
2013-07-13 06:22:00,71.0,70.0,-100.00,SE,140,2.0,3.0,94,0.00,,,0.00,,2013-07-13 11:22:00,
2013-07-13 06:42:00,71.0,70.0,-100.00,SE,125,1.0,2.0,94,0.00,,,0.00,,2013-07-13 11:42:00,
2013-07-13 06:52:00,71.0,70.0,-100.00,SSE,160,2.0,2.0,94,0.00,,,0.00,,2013-07-13 11:52:00,
2013-07-13 07:02:00,71.0,68.0,-100.00,SSE,165,4.0,6.0,92,0.00,,,0.00,,2013-07-13 12:02:00,
2013-07-13 07:22:00,72.0,68.0,-100.00,SE,130,4.0,6.0,86,0.00,,,0.00,,2013-07-13 12:22:00,
2013-07-13 07:43:00,72.0,66.0,-100.00,ESE,120,2.0,6.0,82,0.00,,,0.00,,2013-07-13 12:43:00,
2013-07-13 08:01:00,73.0,66.0,-100.00,SE,140,4.0,8.0,79,0.00,,,0.00,,2013-07-13 13:01:00,
2013-07-13 08:12:00,72.0,66.0,-100.00,South,170,4.0,7.0,80,0.00,,,0.00,,2013-07-13 13:12:00,
2013-07-13 08:22:00,73.0,66.0,-100.00,SSE,160,3.0,5.0,81,0.00,,,0.00,,2013-07-13 13:22:00,
2013-07-13 08:53:00,74.0,66.0,-100.00,SE,125,6.0,7.0,75,0.00,,,0.00,,2013-07-13 13:53:00,
2013-07-13 09:11:00,74.0,66.0,-100.00,SSE,165,6.0,9.0,77,0.00,,,0.00,,2013-07-13 14:11:00,
2013-07-13 09:22:00,74.0,66.0,-100.00,SE,130,6.0,7.0,78,0.00,,,0.00,,2013-07-13 14:22:00,
2013-07-13 10:02:00,74.0,66.0,-100.00,SSE,165,4.0,6.0,77,0.00,,,0.00,,2013-07-13 15:02:00,
2013-07-13 10:22:00,74.0,66.0,-100.00,SSW,205,4.0,6.0,77,0.00,,,0.00,,2013-07-13 15:22:00,
2013-07-13 10:43:00,75.0,68.0,-100.00,WSW,240,4.0,6.0,76,0.00,,,0.00,,2013-07-13 15:43:00,
2013-07-13 11:11:00,78.0,68.0,-100.00,South,170,3.0,6.0,70,0.00,,,0.00,,2013-07-13 16:11:00,
2013-07-13 11:22:00,77.0,66.0,-100.00,North,5,2.0,3.0,67,0.00,,,0.00,,2013-07-13 16:22:00,
2013-07-13 12:01:00,80.0,66.0,-100.00,NW,315,2.0,3.0,63,0.00,,,0.00,,2013-07-13 17:01:00,
2013-07-13 12:12:00,82.0,68.0,-100.00,WSW,255,2.0,4.0,60,0.00,,,0.00,,2013-07-13 17:12:00,
2013-07-13 12:22:00,82.0,66.0,-100.00,SSE,160,4.0,9.0,59,0.00,,,0.00,,2013-07-13 17:22:00,
2013-07-13 12:33:00,81.0,66.0,-100.00,SW,215,2.0,9.0,61,0.00,,,0.00,,2013-07-13 17:33:00,
2013-07-13 13:22:00,80.0,68.0,-100.00,SSE,155,2.0,7.0,65,0.00,,,0.00,,2013-07-13 18:22:00,
2013-07-13 14:22:00,80.0,70.0,-100.00,ESE,115,4.0,7.0,69,0.00,,,0.00,,2013-07-13 19:22:00,
2013-07-13 14:52:00,79.0,68.0,-100.00,East,95,8.0,11.0,70,0.00,,,0.00,,2013-07-13 19:52:00,
2013-07-13 15:11:00,79.0,68.0,-100.00,ESE,105,8.0,11.0,70,0.00,,,0.00,,2013-07-13 20:11:00,
2013-07-13 15:22:00,79.0,68.0,-100.00,ESE,120,9.0,12.0,70,0.00,,,0.00,,2013-07-13 20:22:00,
2013-07-13 15:52:00,78.0,68.0,-100.00,SE,140,7.0,11.0,72,0.00,,,0.00,,2013-07-13 20:52:00,
2013-07-13 16:12:00,77.0,68.0,-100.00,SE,140,7.0,11.0,75,0.00,,,0.00,,2013-07-13 21:12:00,
2013-07-13 16:22:00,76.0,68.0,-100.00,SE,145,7.0,11.0,76,0.00,,,0.00,,2013-07-13 21:22:00,
2013-07-13 17:12:00,76.0,68.0,-100.00,SE,135,4.0,9.0,75,0.00,,,0.00,,2013-07-13 22:12:00,
2013-07-13 17:22:00,76.0,68.0,-100.00,SE,125,6.0,8.0,75,0.00,,,0.00,,2013-07-13 22:22:00,
2013-07-13 17:32:00,76.0,68.0,-100.00,SE,125,6.0,7.0,76,0.00,,,0.00,,2013-07-13 22:32:00,
2013-07-13 18:01:00,75.0,68.0,-100.00,SE,135,6.0,12.0,76,0.00,,,0.00,,2013-07-13 23:01:00,
2013-07-13 18:11:00,75.0,68.0,-100.00,SE,125,4.0,9.0,77,0.00,,,0.00,,2013-07-13 23:11:00,
2013-07-13 18:22:00,75.0,68.0,-100.00,ESE,115,6.0,9.0,77,0.00,,,0.00,,2013-07-13 23:22:00,
2013-07-13 19:01:00,75.0,68.0,-100.00,ESE,115,7.0,9.0,79,0.00,,,0.00,,2013-07-14 00:01:00,
2013-07-13 19:12:00,75.0,68.0,-100.00,SE,125,7.0,12.0,80,0.00,,,0.00,,2013-07-14 00:12:00,
2013-07-13 19:21:00,74.0,68.0,-100.00,ESE,110,7.0,11.0,81,0.00,,,0.00,,2013-07-14 00:21:00,
2013-07-13 19:53:00,74.0,70.0,-100.00,East,100,7.0,12.0,86,0.00,,,0.00,,2013-07-14 00:53:00,
2013-07-13 20:02:00,73.0,70.0,-100.00,ESE,120,7.0,12.0,87,0.00,,,0.00,,2013-07-14 01:02:00,
2013-07-13 20:11:00,73.0,70.0,-100.00,ESE,115,9.0,12.0,89,0.00,,,0.00,,2013-07-14 01:11:00,
2013-07-13 20:22:00,72.0,70.0,-100.00,ESE,115,8.0,14.0,89,0.00,,,0.00,,2013-07-14 01:22:00,
2013-07-13 20:32:00,72.0,70.0,-100.00,ESE,120,7.0,12.0,89,0.00,,,0.00,,2013-07-14 01:32:00,
2013-07-13 20:52:00,72.0,70.0,-100.00,ESE,120,7.0,12.0,89,0.00,,,0.00,,2013-07-14 01:52:00,
2013-07-13 21:22:00,72.0,68.0,-100.00,ESE,120,7.0,10.0,88,0.00,,,0.00,,2013-07-14 02:22:00,
2013-07-13 21:32:00,72.0,68.0,-100.00,ESE,115,7.0,9.0,88,0.00,,,0.00,,2013-07-14 02:32:00,
2013-07-13 21:43:00,72.0,68.0,-100.00,ESE,110,7.0,11.0,87,0.00,,,0.00,,2013-07-14 02:43:00,
2013-07-13 22:01:00,72.0,68.0,-100.00,ESE,115,6.0,12.0,86,0.00,,,0.00,,2013-07-14 03:01:00,
2013-07-13 22:22:00,72.0,68.0,-100.00,ESE,115,5.0,8.0,86,0.00,,,0.00,,2013-07-14 03:22:00,
2013-07-13 22:32:00,72.0,68.0,-100.00,ESE,120,4.0,7.0,86,0.00,,,0.00,,2013-07-14 03:32:00,
2013-07-13 22:53:00,72.0,68.0,-100.00,SE,145,5.0,7.0,86,0.00,,,0.00,,2013-07-14 03:53:00,
2013-07-13 23:02:00,72.0,68.0,-100.00,SE,130,3.0,6.0,87,0.00,,,0.00,,2013-07-14 04:02:00,
2013-07-13 23:11:00,72.0,68.0,-100.00,ESE,120,4.0,6.0,87,0.00,,,0.00,,2013-07-14 04:11:00,
2013-07-13 23:32:00,72.0,68.0,-100.00,SE,125,4.0,6.0,88,0.00,,,0.00,,2013-07-14 04:32:00,